STARLINK-5917 (55942 NORAD) Tracking and Keplerian Element Data

This shows tracking and keplerian element data for the satellite.

Feedback or suggestion? Click here.




ElementValue
Catalog55942
NameSTARLINK-5917
Epoch Orbit839
Epoch Day126.86741662
Epoch Year2023
RAAN40.2079
Inclination69.9995
Eccentricity0.0003518
Argument of Perigee258.5705
Mean Anonmoly101.5096
Mean Motion15.69942524
Decay Rate3.041E-05
L11 55942U 23037AE 23126.86741662 .00003041 00000+0 27028-4 0 9994
L22 55942 69.9995 40.2079 0003518 258.5705 101.5096 15.69942524 8394



Live tracking and technical data element details for STARLINK-5917 (NORAD 55942). STARLINK-5917 can be tracked NOW for your location showing map with azimuth and elevation plus other details from your city location.







IsCatalogInMostPopularTable: catalog: 55942, numindb: 9
Update: records affected: 1



GetName: 55942 STARLINK-5917

Hit Count: updated at: Tue, 06 Jun 2023 01:45:27 GMT